TimeEDT,TemperatureF,Dew PointF,Humidity,Sea Level PressureIn,VisibilityMPH,Wind Direction,Wind SpeedMPH,Gust SpeedMPH,PrecipitationIn,Events,Conditions,WindDirDegrees,DateUTC
12:00 AM,39.2,28.4,65,29.72,25.0,WSW,8.1,-,N/A,,Partly Cloudy,240,2013-10-23 04:00:00
1:00 AM,39.2,28.4,65,29.72,25.0,SW,9.2,-,N/A,,Partly Cloudy,230,2013-10-23 05:00:00
2:00 AM,37.4,28.4,70,29.73,25.0,WSW,5.8,-,N/A,,Partly Cloudy,240,2013-10-23 06:00:00
3:00 AM,37.4,30.2,75,29.72,25.0,WSW,5.8,-,N/A,,Partly Cloudy,240,2013-10-23 07:00:00
4:00 AM,35.6,30.2,81,29.72,25.0,WSW,3.5,-,N/A,,Partly Cloudy,250,2013-10-23 08:00:00
5:00 AM,33.8,30.2,87,29.72,25.0,West,4.6,-,N/A,,Partly Cloudy,260,2013-10-23 09:00:00
6:00 AM,33.8,30.2,87,29.72,25.0,West,3.5,-,N/A,,Mostly Cloudy,270,2013-10-23 10:00:00
7:00 AM,35.6,32.0,87,29.72,25.0,WSW,2.3,-,N/A,,Mostly Cloudy,250,2013-10-23 11:00:00
8:00 AM,33.8,32.0,93,29.73,25.0,West,4.6,-,N/A,,Scattered Clouds,260,2013-10-23 12:00:00
9:00 AM,37.4,33.8,87,29.73,25.0,West,4.6,-,N/A,,Mostly Cloudy,270,2013-10-23 13:00:00
10:00 AM,39.2,33.8,81,29.73,45.0,West,6.9,-,N/A,,Scattered Clouds,260,2013-10-23 14:00:00
11:00 AM,41.0,30.2,65,29.73,45.0,West,6.9,-,N/A,,Mostly Cloudy,280,2013-10-23 15:00:00
12:00 PM,44.6,30.2,57,29.71,45.0,West,9.2,-,N/A,,Mostly Cloudy,270,2013-10-23 16:00:00
1:00 PM,44.6,30.2,57,29.69,45.0,SW,10.4,-,N/A,,Mostly Cloudy,230,2013-10-23 17:00:00
2:00 PM,46.4,28.4,50,29.67,45.0,WSW,11.5,20.7,N/A,,Mostly Cloudy,250,2013-10-23 18:00:00
3:00 PM,46.4,26.6,46,29.66,45.0,West,11.5,-,N/A,,Mostly Cloudy,260,2013-10-23 19:00:00
4:00 PM,46.4,28.4,50,29.65,45.0,SW,8.1,-,N/A,,Scattered Clouds,230,2013-10-23 20:00:00
5:00 PM,44.6,26.6,49,29.65,45.0,West,10.4,-,N/A,,Partly Cloudy,260,2013-10-23 21:00:00
6:00 PM,42.8,26.6,53,29.66,45.0,WSW,8.1,-,N/A,,Scattered Clouds,250,2013-10-23 22:00:00
7:00 PM,41.0,26.6,57,29.68,25.0,WSW,5.8,-,N/A,,Scattered Clouds,240,2013-10-23 23:00:00
8:00 PM,39.2,26.6,61,29.68,25.0,West,4.6,-,N/A,,Scattered Clouds,270,2013-10-24 00:00:00
9:00 PM,37.4,26.6,65,29.68,25.0,WSW,3.5,-,N/A,,Partly Cloudy,240,2013-10-24 01:00:00
10:00 PM,35.6,26.6,70,29.68,25.0,WSW,3.5,-,N/A,,Partly Cloudy,240,2013-10-24 02:00:00
11:00 PM,35.6,26.6,70,29.67,25.0,West,5.8,-,N/A,,Scattered Clouds,270,2013-10-24 03:00:00